CW1172 Weather Reports


time (UTC)temp
C
wind
direction
speed
KPH
gust
KPH
rain 1hr
cm
rain 24hr
cm
rain mn
cm
humidity
%
barometer
mb
20260904054536 13 360 0.0 0.0 0.00 0.00 0.43 92 998.8
20260904053037 13 173 0.0 0.0 0.00 0.00 0.43 92 998.8
20260904051534 13 232 0.0 0.0 0.00 0.00 0.43 92 998.9
20260904050034 13 239 0.0 0.0 0.00 0.00 0.43 92 999.0
20260904044532 13 205 0.0 0.0 0.00 0.00 0.43 93 998.8
20260904043033 13 270 0.0 0.0 0.00 0.00 0.43 93 998.8
20260904041533 13 227 0.0 0.0 0.00 0.00 0.43 93 998.8
20260904040031 13 233 0.0 0.0 0.00 0.00 0.43 93 998.8
20260904034533 13 246 0.0 0.0 0.00 0.00 0.43 93 998.8
20260904033029 13 233 0.0 0.0 0.00 0.00 0.43 93 998.7
20260904031528 13 207 0.0 0.0 0.00 0.00 0.43 93 998.8
20260904030035 14 360 0.0 0.0 0.00 0.00 0.43 93 998.9
20260904024526 14 272 0.0 0.0 0.00 0.00 0.43 93 999.0
20260904023028 14 360 0.0 0.0 0.00 0.00 0.41 93 999.1
20260904021534 14 234 0.0 0.0 0.00 0.00 0.41 93 999.3
20260904020027 14 226 0.0 0.0 0.00 0.00 0.41 93 999.3
20260904014525 14 279 0.0 0.0 0.00 0.00 0.41 93 999.3
20260904013022 14 203 0.0 0.0 0.00 0.00 0.38 93 999.6
20260904011522 14 213 0.0 0.0 0.00 0.00 0.38 93 999.7
20260904010022 14 209 0.0 0.0 0.00 0.00 0.38 93 999.6
20260904004519 14 186 0.0 0.0 0.00 0.00 0.38 93 999.9
20260904003023 14 250 0.0 0.0 0.00 0.00 0.38 92 1000.5
20260904001517 14 138 0.0 0.0 0.00 0.00 0.36 92 1000.7
20260904000017 14 105 0.0 0.0 0.00 0.00 0.33 92 1000.7
20260903234514 14 128 0.0 0.0 0.00 0.00 0.30 92 1000.9
20260903233014 14 155 0.0 0.0 0.00 0.00 0.20 92 1001.0
20260903231510 14 111 0.0 0.0 0.00 0.00 0.08 91 1001.1
20260903230013 14 133 0.0 0.0 0.00 0.00 0.05 91 1001.1
20260903224508 14 129 0.0 0.0 0.00 0.00 0.00 90 1001.4
20260903223010 14 123 0.0 0.0 0.00 0.00 0.00 90 1001.8
20260903221521 14 113 0.0 0.0 0.00 0.00 0.00 90 1001.9
20260903220007 14 130 0.0 0.0 0.00 0.00 0.00 90 1002.0
20260903214506 14 135 0.0 0.0 0.00 0.00 0.00 89 1001.9
20260903213010 14 136 0.0 0.0 0.00 0.00 0.00 89 1002.1
20260903211502 14 117 0.0 0.0 0.00 0.00 0.00 89 1002.3
20260903210001 14 117 0.0 0.0 0.00 0.00 0.00 89 1002.5
20260903204604 14 117 0.0 0.0 0.00 0.00 0.00 88 1002.7
20260903203001 14 118 0.0 0.0 0.00 0.00 0.00 88 1002.9
20260903201601 14 117 0.0 0.0 0.00 0.00 0.00 88 1002.7
20260903200100 14 117 0.0 0.0 0.00 0.00 0.00 88 1002.8
20260903194559 14 190 0.0 0.0 0.00 0.00 0.00 87 1002.6
20260903193057 14 188 0.0 0.0 0.00 0.00 0.00 87 1003.0
20260903191556 14 188 0.0 0.0 0.00 0.00 0.00 86 1003.2
20260903190056 15 189 0.0 0.0 0.00 0.00 0.00 86 1003.2
20260903184554 15 190 0.0 0.0 0.00 0.00 0.00 85 1003.3
20260903183054 15 190 0.0 0.0 0.00 0.00 0.00 85 1003.3
20260903181554 15 188 0.0 0.0 0.00 0.00 0.00 84 1003.3
20260903180112 15 187 0.0 0.0 0.00 0.00 0.00 83 1003.5
20260903174552 15 188 0.0 0.0 0.00 0.00 0.00 82 1003.5
20260903173052 16 188 0.0 0.0 0.00 0.00 0.00 81 1003.6
20260903171554 16 189 0.0 0.0 0.00 0.00 0.00 81 1003.4
20260903170049 16 188 0.0 0.0 0.00 0.00 0.00 80 1003.6
20260903164556 16 190 0.0 0.0 0.00 0.00 0.00 79 1003.8
20260903163048 16 188 0.0 0.0 0.00 0.00 0.00 79 1004.0
20260903161548 16 188 0.0 0.0 0.00 0.00 0.00 79 1004.2
20260903160047 16 189 0.0 0.0 0.00 0.00 0.00 78 1004.3
20260903154545 16 188 0.0 0.0 0.00 0.00 0.00 77 1004.3
20260903153042 16 189 0.0 0.0 0.00 0.00 0.00 77 1004.6
20260903151541 16 219 0.0 0.0 0.00 0.00 0.00 77 1004.7
20260903150040 16 360 0.0 0.0 0.00 0.00 0.00 77 1004.8
20260903144541 16 240 0.0 0.0 0.00 0.00 0.00 76 1004.8
20260903143042 16 360 0.0 0.0 0.00 0.00 0.00 76 1005.1
20260903141540 16 175 0.0 0.0 0.00 0.00 0.00 77 1005.2
20260903140040 16 238 0.0 0.0 0.00 0.00 0.00 77 1005.3
20260903134539 16 360 0.0 0.0 0.00 0.00 0.00 76 1005.5
20260903133040 16 192 0.0 0.0 0.00 0.00 0.00 76 1005.6
20260903131539 16 244 0.0 0.0 0.00 0.00 0.00 76 1005.7
20260903130041 16 203 0.0 0.0 0.00 0.00 0.00 77 1005.8
20260903124532 16 360 0.0 0.0 0.00 0.00 0.00 77 1005.8
20260903123035 16 246 0.0 0.0 0.00 0.00 0.00 77 1006.0
20260903121535 16 252 0.0 0.0 0.00 0.00 0.00 76 1006.2
20260903120030 16 215 0.0 0.0 0.00 0.00 0.00 76 1006.4
20260903114528 16 186 0.0 0.0 0.00 0.00 0.00 76 1006.5
20260903113034 15 159 0.0 0.0 0.00 0.00 0.00 77 1006.6
20260903111528 16 360 0.0 0.0 0.00 0.00 0.00 76 1006.8
20260903110104 16 202 0.0 0.0 0.00 0.00 0.00 76 1006.8
20260903104525 15 261 0.0 0.0 0.00 0.00 0.00 76 1006.9
20260903103024 16 263 0.0 0.0 0.00 0.00 0.00 75 1007.0
20260903101521 16 360 0.0 0.0 0.00 0.00 0.00 74 1007.3
20260903100021 15 254 0.0 0.0 0.00 0.00 0.00 75 1007.5
20260903094542 15 219 0.0 0.0 0.00 0.00 0.00 76 1007.6
20260903093017 15 360 0.0 0.0 0.00 0.00 0.00 75 1007.6
20260903091520 15 241 0.0 0.0 0.00 0.00 0.00 76 1007.7
20260903090016 14 247 0.0 0.0 0.00 0.00 0.00 75 1007.7
20260903084515 14 241 0.0 0.0 0.00 0.00 0.00 74 1007.8
20260903083017 14 219 0.0 0.0 0.00 0.00 0.00 73 1007.8
20260903081523 15 226 0.0 0.0 0.00 0.00 0.00 73 1008.0
20260903080014 14 198 0.0 0.0 0.00 0.00 0.00 73 1008.0
20260903074514 14 206 0.0 0.0 0.00 0.00 0.00 71 1008.2
20260903073012 15 256 0.0 0.0 0.00 0.00 0.00 72 1008.1
20260903071509 13 219 0.0 0.0 0.00 0.00 0.00 73 1008.1
20260903070007 13 236 0.0 0.0 0.00 0.00 0.00 73 1008.2
20260903064504 13 227 0.0 0.0 0.00 0.00 0.00 74 1008.2
20260903063007 13 206 0.0 0.0 0.00 0.00 0.00 74 1008.2
20260903061506 13 208 0.0 0.0 0.00 0.00 0.00 73 1008.1
20260903060005 12 225 0.0 0.0 0.00 0.00 0.00 75 1008.3